Regional Weather Roundup
Issued by NWS

Home | Current Version | Previous Version | Graphics & Text | Print | Product List | Glossary On
Versions: 1 2 3 4 5 6 7 8 9 10 11 12 13 14 15 16 17 18 19 20 21 22 23 24 25 26 27 28 29 30 31 32 33 34 35 36 37 38 39 40 41 42 43 44 45 46 47 48 49 50
000
ASUS43 KDTX 260510
RWRMI
MICHIGAN HOURLY REGIONAL WEATHER ROUNDUP
NATIONAL WEATHER SERVICE DETROIT/PONTIAC MI
100 AM EDT THU MAY 26 2016

NOTE: "FAIR" INDICATES FEW OR NO CLOUDS BELOW 12,000 FEET WITH NO
SIGNIFICANT WEATHER AND/OR OBSTRUCTION TO VISIBILITY.

MIZ047>049-052>055-059>063-066>070-074>076-081>083-260600-
SOUTHEAST LOWER MICHIGAN

CITY           SKY/WX    TMP DP  RH WIND       PRES   REMARKS
ADRIAN         PTCLDY    73  60  63 S9        29.99S
ALMA           CLOUDY    66  60  81 W9G21     29.96S
ANN ARBOR      CLEAR     71  60  68 S6        29.99S
BAD AXE        PTCLDY    62  57  82 S5        29.98F
CARO           PTCLDY    65  59  79 CALM      29.96F
DETROIT CITY   CLOUDY    73  58  59 S10       30.00S
DETROIT        CLOUDY    72  61  68 S8        30.00S
FLINT          CLOUDY    72  58  61 S9        29.96F
GROSSE ILE     CLOUDY    70  63  78 S5        29.99S
HILLSDALE      CLOUDY    72  56  56 S8        30.00R
HOWELL         PTCLDY    72  58  61 S8        29.98S

CITY           SKY/WX    TMP DP  RH WIND       PRES   REMARKS
JACKSON        MOCLDY    72  59  63 S9        29.98R
LAMBERTVILLE   CLOUDY    74  61  64 S6        30.00F
LANSING        CLOUDY    73  59  61 S7        29.97R
LAPEER         FAIR      70  56  62 SE7       29.98F
MASON          CLOUDY    71  59  66 S8        29.97S
MONROE         CLOUDY    69  63  82 S12       29.99S
MT. CLEMENS    MOCLDY    69  61  75 S8        29.99S
PONTIAC        PTCLDY    72  59  63 S8        29.99S
PORT HOPE        N/A     61  55  81 SE5       29.96F
PORT HURON     CLOUDY    70  59  68 S6        30.00F
TRI CITIES     CLOUDY    63  57  81 NE5       29.96F
MIDLAND        FAIR      61  55  83 CALM      29.95F
TROY           CLOUDY    75  59  56 S9        30.01F
SAGINAW HB     MOCLDY    63  59  88 CALM      29.95F
$$
MIZ043>046-050>051-056>058-064>065-071>073-077>080-260600-
SOUTHWEST LOWER MICHIGAN

CITY           SKY/WX    TMP DP  RH WIND       PRES   REMARKS
BATTLE CREEK   RAIN      65  64  97 NW13      30.01R FOG
BENTON HARBOR  TSTM      64  63  96 E7        29.99S FOG
BIG RAPIDS     LGT RAIN  65  64  96 SW3       29.98R
COLDWATER      CLOUDY    74  60  62 SW7       29.99R
FREMONT        LGT RAIN  65  65 100 S7        29.97S
HOLLAND        LGT RAIN  65  62  90 CALM      29.98F
GRAND RAPIDS   HVY RAIN  66  63  90 SW10      30.02R FOG
IONIA          CLOUDY    71  58  63 W21G26    29.99R
KALAMAZOO      TSTM      67  63  87 NW12      30.01S
LUDINGTON      CLOUDY    63  61  94 CALM      29.95S
MARSHALL       RAIN      70  64  79 W12G24    30.00R
MOUNT PLEASANT CLOUDY    62  56  81 CALM      29.96S
MUSKEGON       LGT RAIN  65  60  84 S13       29.95F
SOUTH HAVEN    RAIN      64  63  99 S3        30.00S
$$
MIZ016>042-260600-
NORTHERN LOWER MICHIGAN

CITY           SKY/WX    TMP DP  RH WIND       PRES   REMARKS
ALPENA         PTCLDY    60  52  74 E9        30.00F
BEAVER ISLAND  MOCLDY    61  54  77 E13       29.92F
BELLAIRE       MOCLDY    63  57  82 CALM      29.92F
CADILLAC       RAIN      64  61  90 S7        29.98R
CHARLEVOIX     CLOUDY    66  56  71 E9        29.94F
FRANKFORT      RAIN      64  63  95 SW5       29.94S
GAYLORD        CLOUDY    63  53  70 SE7       29.97F
GRAYLING       CLOUDY    60  57  91 CALM      29.98F
HARBOR SPRINGS CLOUDY    64  55  74 E10       29.94F
HOUGHTON LAKE  CLOUDY    60  56  86 CALM      29.97F
MANISTEE       CLOUDY    66  61  82 CALM      29.95S
OSCODA         MOCLDY    59  52  77 NE3       29.98F
PELLSTON       LGT RAIN  63  56  78 E7        29.96F
ROGERS CITY    CLOUDY    62  52  69 S8        30.01S
TRAVERSE CITY  CLOUDY    68  60  75 CALM      29.92S
$$
MIZ007>008-015-260600-
EASTERN UPPER MICHIGAN

CITY           SKY/WX    TMP DP  RH WIND       PRES   REMARKS
KINROSS          N/A     59  52  77 SE10      29.99F
MACKINAC ISLAN CLOUDY    62  53  72 E10G20    29.97F
NEWBERRY       CLOUDY    61  54  78 SE12G18   29.95F
S. S. MARIE    CLOUDY    59  52  77 E5        30.00S
MUNISING         N/A     50  47  89 N6        29.91S
$$
MIZ004>006-011>014-085-260600-
CENTRAL UPPER MICHIGAN

CITY           SKY/WX    TMP DP  RH WIND       PRES   REMARKS
MANISTIQUE     RAIN      60  57  90 E14       29.92S
ESCANABA       CLOUDY    57  54  88 SE7       29.88F
MENOMINEE      MOCLDY    57  57 100 SE5       29.88F
SAWYER-GWINN   LGT RAIN  53  52  95 NE6       29.91F
$$
MIZ001>003-009>011-084-260600-
WESTERN UPPER MICHIGAN

CITY           SKY/WX    TMP DP  RH WIND       PRES   REMARKS
IRON MOUNTAIN  LGT RAIN  59  57  93 SE6       29.86F
HOUGHTON       RAIN      51  49  92 NE12      29.91F FOG
COPPER HARBOR    N/A     48  44  86 CALM      29.94F
IRONWOOD       MOCLDY    57  55  94 E12       29.81F
$$

ABBREVIATIONS USED IN REMARKS
   TC - TEMPERATURE IN CELSIUS
  WCI - WIND CHILL INDEX
   HX - HEAT INDEX
  VSB - VISIBILITY





USA.gov is the U.S. government's official web portal to all federal, state and local government web resources and services.